Regional Weather Roundup
Issued by NWS

Home | Current Version | Previous Version | Graphics & Text | Print | Product List | Glossary On
Versions: 1 2 3 4 5 6 7 8 9 10 11 12 13 14 15 16 17 18 19 20 21 22 23 24 25 26 27 28 29 30 31 32 33 34 35 36 37 38 39 40 41 42 43 44 45 46 47 48 49 50
000
ASUS43 KMKX 301200
RWRWI

WISCONSIN REGIONAL WEATHER ROUNDUP
NATIONAL WEATHER SERVICE MILWAUKEE/SULLIVAN WI
700 AM CDT SUN AUG 30 2015

NOTE: "FAIR" INDICATES FEW OR NO CLOUDS BELOW 12,000 FEET WITH NO
SIGNIFICANT WEATHER AND/OR OBSTRUCTIONS TO VISIBILITY.

WIZ001-002-006>008-014>016-023>028-301300-
NORTHWEST WISCONSIN

CITY           SKY/WX    TMP DP  RH WIND       PRES   REMARKS
SUPERIOR ARPT  CLOUDY    64  63  96 SW8       29.95S
ASHLAND        CLOUDY    65  64  97 S9        29.98R
6HR MIN TEMP:  57; 6HR MAX TEMP:  65;

HAYWARD        CLOUDY    63  61  93 S10       30.01S
6HR MIN TEMP:  59; 6HR MAX TEMP:  63;

SIREN          CLOUDY    64  63  96 S6        30.00R
CUMBERLAND     FOG       59  59 100 S6        30.02S VSB 1/2
RICE LAKE      CLOUDY    58  56  95 CALM      30.04R FOG
CHETEK         FOG      N/A N/A N/A CALM      30.04R VSB 3/4
LADYSMITH      CLOUDY    59  58  97 CALM      30.06R FOG
EAU CLAIRE     CLEAR     57  55  93 CALM      30.04R
6HR MIN TEMP:  54; 6HR MAX TEMP:  61;

MENOMONIE      FOG       56  56  99 SE3       30.03S VSB 1/4
NEW RICHMOND   CLOUDY    62  62  99 S7        30.02R FOG
OSCEOLA        CLOUDY    64  64 100 S7        30.03R
$$

WIZ003>005-009-010-017-018-301300-
NORTH CENTRAL WISCONSIN

CITY           SKY/WX    TMP DP  RH WIND       PRES   REMARKS
MANITOWISH WTR CLOUDY    60  60 100 SW5       30.04S
ARBOR VITAE    CLOUDY    60  59  97 CALM      30.05S FOG
WOODRUFF       CLOUDY    60  59  97 CALM      30.05S FOG
RHINELANDER    FOG       58  57  97 SW3       30.07R VSB 1/4
6HR MIN TEMP:  58; 6HR MAX TEMP:  60;

EAGLE RIVER    CLOUDY    59  59 100 SW6       30.05R FOG
LAND O LAKES   CLOUDY    60  60  99 SW6       30.05S FOG
PHILLIPS       FOG       57  57 100 CALM      30.04S VSB 1/4
6HR MIN TEMP:  56; 6HR MAX TEMP:  59;

TOMAHAWK       FOG       53  52  97 CALM      30.06S VSB<1/4
MEDFORD        FOG       50  50 100 CALM      30.06R VSB<1/4
MERRILL        DRZL/FOG  52  52 100 CALM      30.07R VSB<1/4
$$

WIZ029-030-035-036-043>047-301300-
CENTRAL WISCONSIN

CITY           SKY/WX    TMP DP  RH WIND       PRES   REMARKS
WAUSAU         FOG       52  51  97 CALM      30.06R VSB 1/4
6HR MIN TEMP:  51; 6HR MAX TEMP:  56;

MOSINEE        FOG       52  52 100 CALM      30.07R VSB 1/4
MARSHFIELD     FOG       54  52  93 CALM      30.07R VSB 1/4
6HR MIN TEMP:  52; 6HR MAX TEMP:  58;

STEVENS POINT  CLEAR     50  50  99 CALM      30.07R FOG
WAUPACA        CLEAR     53  51  96 CALM      30.07R
WAUTOMA        FOG       54  54 100 CALM      30.08R VSB<1/4
WISC RAPIDS    PTCLDY    55  53  93 CALM      30.08R FOG
6HR MIN TEMP:  53; 6HR MAX TEMP:  62; 6HR PCP: TRACE;

CAMP DOUGLAS   FOG       52  52 100 S1        30.06S VSB 1/2
                                      6HR PCP: TRACE;

$$

WIZ011>013-019>022-031-037>040-048>050-301300-
NORTHEAST WISCONSIN

CITY           SKY/WX    TMP DP  RH WIND       PRES   REMARKS
ANTIGO         FOG       51  51 100 CALM      30.08R VSB 1/4
SHAWANO        FOG       53  51  95 CALM      30.07R VSB 1/4
OCONTO         CLOUDY    51  51 100 CALM      30.06R VSB<1/4
STURGEON BAY   CLOUDY    61  55  82 SW3       30.09R VSB<1/4
6HR MIN TEMP:  54; 6HR MAX TEMP:  61;

GREEN BAY      FOG       56  55  97 CALM      30.07R VSB 1/4
6HR MIN TEMP:  55; 6HR MAX TEMP:  60;

MANITOWOC      NOT AVBL
APPLETON       MOCLDY    55  55 100 CALM      30.06R FOG
CLINTONVILLE   FOG       52  50  93 CALM      30.07R VSB 1/4
OSHKOSH        FOG       55  55 100 CALM      30.07R VSB 1/2
6HR MIN TEMP:  53; 6HR MAX TEMP:  62;

$$

WIZ032>034-041-042-053>061-301300-
SOUTHWEST WISCONSIN

CITY           SKY/WX    TMP DP  RH WIND       PRES   REMARKS
LA CROSSE      FOG       59  59 100 E6        30.05R VSB<1/4
6HR MIN TEMP:  58; 6HR MAX TEMP:  61;

SPARTA         CLEAR     52  51  97 CALM      30.07R
VIROQUA          N/A     58  58 100 S3        30.07R
BOSCOBEL       FOG       61  59  93 CALM      30.07R VSB<1/4
6HR MIN TEMP:  60; 6HR MAX TEMP:  65;

PRAIRIE DU CHI FOG       58  57  96 CALM      30.06S VSB 1/4
PLATTEVILLE    CLEAR     61  59  94 E3        30.07R
$$

WIZ056-057-062-063-064-067-068-301300-
SOUTH CENTRAL WISCONSIN

CITY           SKY/WX    TMP DP  RH WIND       PRES   REMARKS
REEDSBURG      CLOUDY    58  58 100 CALM      30.07R
BARABOO/DELLS  FOG       59  57  95 CALM      30.07R VSB 1/4
LONE ROCK      FOG       61  60  97 CALM      30.07R VSB<1/4
MINERAL POINT  CLEAR     63  59  88 CALM      30.07S
MADISON        CLOUDY    62  60  93 CALM      30.07R
6HR MIN TEMP:  61; 6HR MAX TEMP:  64;

MIDDLETON      CLOUDY    63  63 100 CALM      30.08R VSB<1/4
WATERTOWN      CLOUDY    62  62 100 CALM      30.06S FOG
MONROE         CLOUDY    63  59  88 CALM      30.07S
JANESVILLE     CLOUDY    64  63  94 CALM      30.06R FOG
$$

WIZ051-052-058>065-066-070>072-301300-
SOUTHEAST WISCONSIN

CITY           SKY/WX    TMP DP  RH WIND       PRES   REMARKS
MILWAUKEE      FOG       63  62  97 N5        30.06R VSB 1/4
6HR MIN TEMP:  62; 6HR MAX TEMP:  63;

WAUKESHA       FOG       61  61 100 CALM      30.08R VSB 1
MILWAUKEE/TIMM FOG       63  61  94 CALM      30.08R VSB 1
RACINE         FOG       63  62  97 NW5       30.08R VSB 1/4
6HR MIN TEMP:  63; 6HR MAX TEMP:  63;

BURLINGTON     MOCLDY    59  59  99 NW5       30.07R FOG
KENOSHA        CLOUDY    63  62  97 N7        30.07R FOG
6HR MIN TEMP:  63; 6HR MAX TEMP:  64;

FOND DU LAC    FOG       62  60  93 CALM      30.08R VSB<1/4
6HR MIN TEMP:  56; 6HR MAX TEMP:  63;

SHEBOYGAN      FOG       56  55  97 NW6       30.08R VSB 1/2
6HR MIN TEMP:  53; 6HR MAX TEMP:  62;

WEST BEND      FOG       57  55  94 CALM      30.07R VSB<1/4
JUNEAU         FOG       57  56  99 CALM      30.08R VSB<1/4
$$

LSZ147-162-301300-
LAKE SUPERIOR

STATION/POSITION TIME  TEMP    WIND        PRES    WAVE
                       AIR SEA DIR/SP/G            HT/PER
                 (UTC) (F)     (DEG/KT/KT) (MB)    (FT/S)
W MID LAKE BUOY  1050   59 54  210/ 16/ 17 1013.7F   1/ 3
DEVILS ISLAND    1100   63     200/  7/  9 1014.1S
PORT WING        1140   65     200/  6/ 14 1014.6S
SAXON HARBOR     1100   64     210/  3/  9 1014.6
$$

LMZ867-665-643>646-301300-
LAKE MICHIGAN

STATION/POSITION TIME  TEMP    WIND        PRES    WAVE
                       AIR SEA DIR/SP/G            HT/PER
                 (UTC) (F)     (DEG/KT/KT) (MB)    (FT/S)
CHAMBERS ISLAND  1100   58      CALM  /  3 1017.6R
S GREEN BAY BUOY 1100   59 62  230/  4/  6 1018.6F
N MID LAKE BUOY  1050   63 64  230/  6/  6 1017.1R   0
NORTHPORT PIER   1104   60     250/  3/  6 1017.3R
SISTER BAY       1119   60     240/  4/  5   N/A
ALGOMA LAKESHORE 1114             CALM       N/A
SHEBOYGAN LAKESH 1100   52     340/  1/  2 1018.2R
PORT WASHINGTON  1100   61     300/  4/  4 1018.3
ATWATER BUOY     1100   54 49  340/  4/  4 1018.9R
MILWAUKEE LAKESH 1100   62     330/  3/  4   N/A
S MID LAKE BUOY  1050   67 68  360/ 12/ 12 1016.3R   1
KENOSHA   LAKESH 1100   63     330/  5/  6 1017.3S
$$

TC  - TEMPERATURE IN CELSIUS
VSB - VISIBILITY IN STATUTE MILES
WCI - WIND CHILL INDEX
HX  - HEAT INDEX




USA.gov is the U.S. government's official web portal to all federal, state and local government web resources and services.